Tracking 18980 objects as of 18-Feb-2018
HD Live streaming from Space Station
objects crossing your sky now

COSMOS 1135

Track COSMOS 1135 now!
10-day predictions
COSMOS 1135 is classified as:


NORAD ID: 11543
Int'l Code: 1979-084F
Perigee: 1,469.4 km
Apogee: 1,498.5 km
Inclination: 74.0 °
Period: 115.5 minutes
Semi major axis: 7854 km
RCS: 0.7033 m2 (medium)
Launch date: September 25, 1979
Source: Commonwealth of Independent States (former USSR) (CIS)
Launch site: PLESETSK MISSILE AND SPACE COMPLEX (PKMTR)
aabbcc
Your satellite tracking list
Your tracking list is empty




NASA's NSSDC Master Catalog

Two Line Element Set (TLE):
1 11543U 79084F   18048.76915372  .00000002  00000-0  11972-3 0  9998
2 11543  74.0253 149.6423 0018555 101.3307  14.8146 12.47058269748260
Source of the keplerian elements: AFSPC